Location: High Cliff State Park
(44.1557°N, 88.2948°W)
Time: 14:07:53
(UTC-05:00)

Amateur Radio Satellites - All Passes

Search period start: 01 September 2014 13:37
Search period end: 02 September 2014 13:37
Location: High Cliff State Park, 44.1557°N, 88.2948°W

Satellite Date Start Highest point End Downlink Frequencies (MHz)
Time Altitude Azimuth
AO-Echo 01 Sep 13:41:57 13:46:47 51° 71° (ENE) 13:51:29 ?
RS-15 01 Sep 13:45:37 13:54:49 29° 19° (NNE) 14:04:12 29.354 - 29.394 USB, Beacon 29.352 USB
SO-50 01 Sep 13:48:52 13:51:14 14° 252° (WSW) 13:53:36 436.795 FM
MaSat-1 01 Sep 13:50:44 13:55:34 49° 303° (WNW) 14:00:36 437.345 MHz
UOSAT-12 01 Sep 13:56:19 14:01:05 83° 55° (NE) 14:05:46 437.025 FM, 437.400 FM
Oscar 16 01 Sep 14:03:58 14:08:57 49° 261° (W) 14:14:00 437.025 USB, Beacon 2401.1428
ITAMSAT 1 01 Sep 14:05:00 14:10:10 77° 74° (ENE) 14:15:21 435.822 SSB
Uribyol 2 01 Sep 14:14:30 14:19:39 84° 256° (WSW) 14:24:51 436.500 FM
TMSAT-1 01 Sep 14:24:04 14:28:57 40° 68° (ENE) 14:33:52 436.925 FM
ISS 01 Sep 14:26:36 14:29:28 26° 12° (NNE) 14:32:21 145.800 FM
AO-27 01 Sep 14:34:41 14:39:47 58° 259° (W) 14:44:54 436.795 MHz FM
Uosat F 01 Sep 14:37:56 14:39:25 11° 56° (NE) 14:40:54 435.120 FM
AO-7 01 Sep 14:41:58 14:48:52 30° 54° (NE) 14:55:45 29.400 - 29.500 MHz
JAS-1B 01 Sep 14:45:31 14:55:13 68° 258° (WSW) 15:03:52 435.800 - 435.900 CW/SSB
Oscar 19 01 Sep 15:11:03 15:13:35 14° 272° (W) 15:16:09 437.125 CW, 437.150 USB
Gurwin Techsat 1B 01 Sep 15:13:12 15:18:25 59° 259° (W) 15:23:40 435.225 FM
AO-Echo 01 Sep 15:22:13 15:25:49 20° 267° (W) 15:29:22 ?
MaSat-1 01 Sep 15:32:33 15:33:50 11° 323° (NW) 15:35:06 437.345 MHz
UOSAT-12 01 Sep 15:38:27 15:40:33 13° 252° (WSW) 15:42:38 437.025 FM, 437.400 FM
ITAMSAT 1 01 Sep 15:47:38 15:50:15 14° 271° (W) 15:52:52 435.822 SSB
RS-15 01 Sep 15:58:45 16:09:46 66° 49° (NE) 16:21:09 29.354 - 29.394 USB, Beacon 29.352 USB
Uribyol 2 01 Sep 15:59:14 15:59:55 10° 273° (W) 16:00:35 436.500 FM
ISS 01 Sep 16:03:12 16:06:33 88° 31° (NNE) 16:09:53 145.800 FM
OPAL 01 Sep 16:04:13 16:05:09 10° 89° (E) 16:06:05 ?
TMSAT-1 01 Sep 16:04:27 16:08:58 28° 265° (W) 16:13:31 436.925 FM
Uosat F 01 Sep 16:12:21 16:17:21 78° 74° (ENE) 16:22:23 435.120 FM
Sapphire 01 Sep 16:19:33 16:24:29 38° 112° (ESE) 16:29:28 437.095 MHz 1200 baud AX-25 AFSK
AO-7 01 Sep 16:32:41 16:41:00 72° 254° (WSW) 16:49:21 29.400 - 29.500 MHz
JAS-2 01 Sep 16:38:44 16:42:47 20° 62° (ENE) 16:46:37 435.800 - 435.900 CW/SSB, 435.910 FM
JAS-1B 01 Sep 16:42:04 16:46:54 15° 275° (W) 16:51:33 435.800 - 435.900 CW/SSB
PCSat 01 Sep 16:48:16 16:53:38 71° 118° (ESE) 16:59:03 145.825 MHz
Hamsat 01 Sep 17:38:15 17:42:27 53° 73° (ENE) 17:46:43 145.90 MHz
OPAL 01 Sep 17:39:32 17:44:48 82° 106° (ESE) 17:50:00 ?
ISS 01 Sep 17:41:10 17:42:50 13° 228° (SW) 17:44:30 145.800 FM
Uosat F 01 Sep 17:54:26 17:56:43 13° 271° (W) 17:59:01 435.120 FM
Sapphire 01 Sep 18:02:57 18:07:55 36° 311° (NW) 18:12:56 437.095 MHz 1200 baud AX-25 AFSK
RS-15 01 Sep 18:11:39 18:21:34 40° 252° (WSW) 18:31:53 29.354 - 29.394 USB, Beacon 29.352 USB
JAS-2 01 Sep 18:21:31 18:27:32 65° 258° (WSW) 18:32:57 435.800 - 435.900 CW/SSB, 435.910 FM
AO-7 01 Sep 18:31:19 18:35:13 14° 274° (W) 18:39:08 29.400 - 29.500 MHz
PCSat 01 Sep 18:33:20 18:37:35 23° 318° (NW) 18:41:52 145.825 MHz
SO-67 01 Sep 18:42:34 18:45:44 34° 72° (ENE) 18:48:55 435.3500 MHz FM
Hamsat 01 Sep 19:16:13 19:18:45 15° 270° (W) 19:21:18 145.90 MHz
OPAL 01 Sep 19:19:56 19:23:00 16° 304° (NW) 19:26:04 ?
STRAND 1 01 Sep 19:26:44 19:31:41 49° 100° (E) 19:36:37 ?
HO-68 01 Sep 19:50:01 19:56:13 34° 60° (ENE) 20:02:27 435.675 MHz FM
SO-67 01 Sep 20:16:57 20:18:55 14° 268° (W) 20:20:54 435.3500 MHz FM
MaSat-1 01 Sep 20:32:07 20:33:23 11° 37° (NE) 20:34:37 437.345 MHz
STRAND 1 01 Sep 21:06:37 21:10:34 23° 297° (WNW) 21:14:31 ?
UKube-1 01 Sep 21:10:09 21:14:25 57° 72° (ENE) 21:18:41 145.840 MHz, 145.915 MHz
Oscar 11 01 Sep 21:14:12 21:18:14 39° 70° (ENE) 21:22:18 145.825 FM, Beacon 2401.500 USB
HO-68 01 Sep 21:36:42 21:43:38 53° 259° (W) 21:50:37 435.675 MHz FM
Saudisat 1A 01 Sep 21:44:28 21:48:12 28° 115° (ESE) 21:51:59 436.775 MHz
FUNcube-1 01 Sep 21:46:11 21:49:57 33° 69° (ENE) 21:53:49 145.950 - 145.970 MHz USB
MaSat-1 01 Sep 22:06:56 22:11:32 61° 59° (ENE) 22:15:30 437.345 MHz
AO-40 01 Sep 22:24:02 03:58:02 37° 163° (SSE) 05:42:50 Beacon 2401.320
KITSAT 1 01 Sep 22:27:20 22:34:21 34° 108° (ESE) 22:41:22 435.175 FM
UKube-1 01 Sep 22:48:41 22:50:59 14° 269° (W) 22:53:17 145.840 MHz, 145.915 MHz
Oscar 11 01 Sep 22:51:19 22:54:34 20° 267° (W) 22:57:51 145.825 FM, Beacon 2401.500 USB
FUNcube-1 01 Sep 23:23:05 23:26:25 23° 267° (W) 23:29:50 145.950 - 145.970 MHz USB
Saudisat 1A 01 Sep 23:23:34 23:27:40 37° 313° (NW) 23:31:48 436.775 MHz
Sapphire 01 Sep 23:24:12 23:25:55 11° 29° (NNE) 23:27:38 437.095 MHz 1200 baud AX-25 AFSK
MaSat-1 01 Sep 23:45:40 23:47:46 13° 261° (W) 23:49:44 437.345 MHz
PCSat 01 Sep 23:52:23 23:55:52 17° 37° (NE) 23:59:20 145.825 MHz
KITSAT 1 02 Sep 00:21:19 00:29:18 62° 308° (NW) 00:37:21 435.175 FM
Sapphire 02 Sep 01:05:37 01:10:49 44° 52° (NE) 01:16:00 437.095 MHz 1200 baud AX-25 AFSK
PCSat 02 Sep 01:34:45 01:40:13 77° 58° (ENE) 01:45:38 145.825 MHz
Oscar 19 02 Sep 01:39:12 01:43:27 25° 94° (E) 01:47:39 437.125 CW, 437.150 USB
AO-Echo 02 Sep 01:49:17 01:51:29 13° 89° (E) 01:53:42 ?
Oscar 16 02 Sep 02:13:57 02:19:03 53° 100° (E) 02:24:06 437.025 USB, Beacon 2401.1428
Oscar 10/S400 02 Sep 02:14:48 03:19:08 42° 221° (SW) 08:45:02 145.825 - 145.975 CW/USB, Beacon 145.810 USB
ITAMSAT 1 02 Sep 02:16:59 02:21:10 24° 94° (E) 02:25:19 435.822 SSB
KITSAT 1 02 Sep 02:20:33 02:26:31 22° 334° (NNW) 02:32:30 435.175 FM
SO-50 02 Sep 02:24:32 02:27:30 18° 110° (ESE) 02:30:31 436.795 FM
Uribyol 2 02 Sep 02:26:02 02:30:38 31° 96° (E) 02:35:12 436.500 FM
JAS-1B 02 Sep 02:31:52 02:37:43 32° 93° (E) 02:42:55 435.800 - 435.900 CW/SSB
TMSAT-1 02 Sep 02:39:53 02:42:27 14° 88° (E) 02:45:01 436.925 FM
AO-27 02 Sep 02:46:09 02:51:07 45° 99° (E) 02:56:04 436.795 MHz FM
Sapphire 02 Sep 02:49:23 02:54:04 30° 250° (WSW) 02:58:43 437.095 MHz 1200 baud AX-25 AFSK
Oscar 19 02 Sep 03:18:02 03:22:58 44° 291° (WNW) 03:27:52 437.125 CW, 437.150 USB
OPAL 02 Sep 03:18:36 03:22:40 25° 61° (ENE) 03:26:47 ?
PCSat 02 Sep 03:19:45 03:22:57 16° 256° (WSW) 03:26:09 145.825 MHz
AO-Echo 02 Sep 03:26:06 03:30:46 69° 286° (WNW) 03:35:28 ?
Gurwin Techsat 1B 02 Sep 03:27:48 03:32:59 50° 100° (E) 03:38:07 435.225 FM
Oscar 16 02 Sep 03:54:05 03:58:02 22° 298° (WNW) 04:01:59 437.025 USB, Beacon 2401.1428
ITAMSAT 1 02 Sep 03:55:55 04:00:51 45° 291° (WNW) 04:05:46 435.822 SSB
SO-50 02 Sep 04:03:10 04:07:36 58° 309° (NW) 04:12:09 436.795 FM
Uribyol 2 02 Sep 04:05:25 04:10:08 36° 293° (WNW) 04:14:50 436.500 FM
UOSAT-12 02 Sep 04:10:31 04:13:30 17° 110° (ESE) 04:16:32 437.025 FM, 437.400 FM
TMSAT-1 02 Sep 04:17:41 04:23:00 81° 286° (WNW) 04:28:18 436.925 FM
Uosat F 02 Sep 04:19:22 04:23:07 21° 93° (E) 04:26:52 435.120 FM
KITSAT 1 02 Sep 04:21:17 04:25:37 15° 4° (N) 04:29:56 435.175 FM
JAS-1B 02 Sep 04:22:19 04:28:35 41° 296° (WNW) 04:34:04 435.800 - 435.900 CW/SSB
AO-27 02 Sep 04:26:11 04:30:23 26° 296° (WNW) 04:34:36 436.795 MHz FM
AO-7 02 Sep 04:32:50 04:40:21 36° 97° (E) 04:47:47 29.400 - 29.500 MHz
OPAL 02 Sep 04:56:22 05:01:15 47° 259° (WSW) 05:06:14 ?
Gurwin Techsat 1B 02 Sep 05:08:28 05:12:38 24° 297° (WNW) 05:16:47 435.225 FM
STRAND 1 02 Sep 05:08:54 05:10:52 12° 56° (ENE) 05:12:51 ?
JAS-2 02 Sep 05:30:24 05:32:32 12° 89° (E) 05:34:43 435.800 - 435.900 CW/SSB, 435.910 FM
SO-50 02 Sep 05:47:04 05:49:10 13° 330° (NNW) 05:51:18 436.795 FM
UOSAT-12 02 Sep 05:48:34 05:53:09 63° 308° (NW) 05:57:51 437.025 FM, 437.400 FM
Uosat F 02 Sep 05:57:21 06:02:11 49° 290° (WNW) 06:06:59 435.120 FM
TMSAT-1 02 Sep 05:59:54 06:02:05 13° 304° (NW) 06:04:15 436.925 FM
Saudisat 1A 02 Sep 06:09:12 06:13:20 37° 47° (NE) 06:17:27 436.775 MHz
KITSAT 1 02 Sep 06:17:39 06:24:21 27° 34° (NNE) 06:31:01 435.175 FM
AO-7 02 Sep 06:25:24 06:33:24 55° 297° (WNW) 06:41:22 29.400 - 29.500 MHz
RS-15 02 Sep 06:25:50 06:35:06 33° 105° (ESE) 06:44:13 29.354 - 29.394 USB, Beacon 29.352 USB
STRAND 1 02 Sep 06:44:09 06:49:15 83° 74° (ENE) 06:54:22 ?
Hamsat 02 Sep 06:58:15 07:02:38 90° 95° (E) 07:06:57 145.90 MHz
JAS-2 02 Sep 07:12:58 07:18:15 85° 285° (WNW) 07:23:58 435.800 - 435.900 CW/SSB, 435.910 FM
UOSAT-12 02 Sep 07:31:46 07:34:16 14° 329° (NNW) 07:36:46 437.025 FM, 437.400 FM
SO-67 02 Sep 07:37:38 07:40:49 33° 97° (E) 07:43:58 435.3500 MHz FM
Saudisat 1A 02 Sep 07:49:02 07:52:47 28° 245° (WSW) 07:56:31 436.775 MHz
KITSAT 1 02 Sep 08:12:48 08:20:57 86° 58° (ENE) 08:29:01 435.175 FM
AO-7 02 Sep 08:20:27 08:24:24 14° 319° (NW) 08:28:21 29.400 - 29.500 MHz
STRAND 1 02 Sep 08:26:59 08:29:05 12° 272° (W) 08:31:11 ?
RS-15 02 Sep 08:35:26 08:46:28 75° 308° (NW) 08:57:27 29.354 - 29.394 USB, Beacon 29.352 USB
Hamsat 02 Sep 08:37:10 08:37:53 10° 301° (WNW) 08:38:35 145.90 MHz
ISS 02 Sep 08:48:35 08:50:00 12° 131° (SE) 08:51:26 145.800 FM
JAS-2 02 Sep 09:00:32 09:02:40 13° 303° (WNW) 09:04:52 435.800 - 435.900 CW/SSB, 435.910 FM
HO-68 02 Sep 09:02:57 09:08:58 28° 94° (E) 09:14:57 435.675 MHz FM
SO-67 02 Sep 09:11:28 09:13:36 16° 294° (WNW) 09:15:43 435.3500 MHz FM
KITSAT 1 02 Sep 10:09:37 10:15:21 22° 257° (WSW) 10:21:04 435.175 FM
ISS 02 Sep 10:22:56 10:26:15 87° 148° (SSE) 10:29:36 145.800 FM
UKube-1 02 Sep 10:32:53 10:37:15 87° 104° (ESE) 10:41:36 145.840 MHz, 145.915 MHz
Oscar 11 02 Sep 10:36:03 10:40:25 65° 101° (ESE) 10:44:45 145.825 FM, Beacon 2401.500 USB
HO-68 02 Sep 10:50:03 10:57:04 60° 293° (WNW) 11:04:03 435.675 MHz FM
RS-15 02 Sep 10:51:38 11:01:00 31° 337° (NNW) 11:10:27 29.354 - 29.394 USB, Beacon 29.352 USB
SO-50 02 Sep 10:53:04 10:57:17 30° 44° (NE) 11:01:33 436.795 FM
FUNcube-1 02 Sep 11:09:16 11:13:47 60° 101° (E) 11:18:20 145.950 - 145.970 MHz USB
JAS-1B 02 Sep 11:33:40 11:35:27 11° 44° (NE) 11:37:11 435.800 - 435.900 CW/SSB
MaSat-1 02 Sep 11:56:29 12:00:17 22° 104° (ESE) 12:04:12 437.345 MHz
Oscar 16 02 Sep 11:56:36 11:58:59 13° 57° (ENE) 12:01:22 437.025 USB, Beacon 2401.1428
ISS 02 Sep 12:00:25 12:03:18 27° 347° (NNW) 12:06:12 145.800 FM
UKube-1 02 Sep 12:11:42 12:12:47 11° 302° (WNW) 12:13:51 145.840 MHz, 145.915 MHz
Oscar 11 02 Sep 12:13:47 12:16:05 14° 299° (WNW) 12:18:22 145.825 FM, Beacon 2401.500 USB
AO-27 02 Sep 12:30:25 12:32:18 12° 56° (NE) 12:34:12 436.795 MHz FM
SO-50 02 Sep 12:33:27 12:37:59 43° 242° (WSW) 12:42:34 436.795 FM
UOSAT-12 02 Sep 12:37:07 12:41:11 27° 42° (NE) 12:45:13 437.025 FM, 437.400 FM
HO-68 02 Sep 12:40:13 12:43:21 13° 313° (NW) 12:46:29 435.675 MHz FM
FUNcube-1 02 Sep 12:46:55 12:49:43 16° 297° (WNW) 12:52:33 145.950 - 145.970 MHz USB
Oscar 19 02 Sep 12:57:23 13:02:12 42° 68° (ENE) 13:07:04 437.125 CW, 437.150 USB
AO-Echo 02 Sep 13:03:08 13:06:57 23° 64° (ENE) 13:10:42 ?
RS-15 02 Sep 13:09:04 13:17:56 27° 13° (NNE) 13:26:57 29.354 - 29.394 USB, Beacon 29.352 USB
Gurwin Techsat 1B 02 Sep 13:13:55 13:16:33 14° 57° (ENE) 13:19:11 435.225 FM
JAS-1B 02 Sep 13:15:15 13:24:04 44° 64° (ENE) 13:31:52 435.800 - 435.900 CW/SSB
